Home   Weather   Alta   Past weeks
Flag for Norway

Past Weather in Alta, Norway — Yesterday and Last 2 Weeks

Now
41 °F

Quite cool.


Feels Like: 39 °F
Forecast: 37 / 27 °F
Wind: 3 mph from South

Location: Alta Lufthavn

Current Time: Mar 23, 2019 at 12:00:41 pm

Latest Report: Mar 23, 2019 at 11:00 am


Visibility: N/A

Pressure: 29.00 "Hg

Humidity: 58%

Dew Point: 27 °F

Location of AltaLocation

Past Weather in Alta — Graph

°F

Alta Temperature Yesterday

Maximum temperature yesterday: 39 °F (at 2:00 pm)
Minimum temperature yesterday: 31 °F (at 6:00 am)
Average temperature yesterday: 35 °F

High & Low Weather Summary for the Past Weeks

 TemperatureHumidityPressure
High40 °F (Mar 21, 11:00 am)96% (Mar 15, 10:00 pm)29.89 "Hg (Mar 15, 10:00 pm)
Low-2 °F (Mar 11, 1:00 am)44% (Mar 21, 11:00 am)29.06 "Hg (Mar 23, 9:00 am)
Average24 °F71%29.55 "Hg
* Reported Mar 8 10:00 am — Mar 23 10:00 am, Alta. Weather by CustomWeather, © 2019

Note: Actual official high and low records may vary slightly from our data, if they occured in-between our weather recording intervals... More about our weather records

Advertising

Alta Weather History for the Previous 24 Hours

Scroll right to see more
 ConditionsComfort  
Time TempWeatherWind HumidityBarometerVisibility
10:00 am
Sat, Mar 23
39 °FChilly.6 mph63%29.06 "HgN/A
9:00 am39 °FChilly.5 mph64%29.06 "HgN/A
8:00 am39 °FChilly.3 mph63%29.09 "HgN/A
7:00 am37 °FChilly.2 mph67%29.12 "HgN/A
6:00 am36 °FChilly.6 mph67%29.15 "HgN/A
5:00 am37 °FChilly.7 mph67%29.18 "HgN/A
4:00 am37 °FChilly.5 mph67%29.21 "HgN/A
3:00 am38 °FChilly.8 mph66%29.23 "HgN/A
2:00 am36 °FChilly.9 mph66%29.26 "HgN/A
1:00 am35 °FChilly.10 mph69%29.29 "HgN/A
10:00 pm
Fri, Mar 22
35 °FChilly.7 mph57%29.47 "HgN/A
9:00 pm34 °FChilly.7 mph55%29.55 "HgN/A
7:00 pm33 °FChilly.8 mph52%29.65 "HgN/A
5:00 pm33 °FChilly.3 mph55%29.78 "HgN/A
4:00 pm36 °FChilly.8 mph54%29.79 "HgN/A
2:00 pm39 °FChilly.6 mph46%29.83 "HgN/A
1:00 pm39 °FChilly.5 mph47%29.84 "HgN/A
12:00 pm38 °FChilly.6 mph51%29.85 "HgN/A
Weather by CustomWeather, © 2019

See weather overview